FW0180 Weather Reports


Display with metric or nautical units.
time (UTC)temp
F
wind
direction
speed
MPH
gust
MPH
rain 1hr
in
rain 24hr
in
rain mn
in
humidity
%
barometer
mb
20190123012011 57 194 2.0 0.0 0.00 0.00 0.00 29 1020.8
20190123011511 58 192 0.0 0.0 0.00 0.00 0.00 29 1020.7
20190123011011 58 192 0.0 0.0 0.00 0.00 0.00 28 1020.6
20190123010511 58 192 0.0 0.0 0.00 0.00 0.00 28 1020.6
20190123010011 59 192 0.0 0.0 0.00 0.00 0.00 27 1020.5
20190123005511 59 192 0.0 0.0 0.00 0.00 0.00 25 1020.4
20190123005011 59 192 0.0 0.0 0.00 0.00 0.00 25 1020.3
20190123004511 60 192 0.0 0.0 0.00 0.00 0.00 25 1020.2
20190123004011 60 192 0.0 0.0 0.00 0.00 0.00 25 1020.2
20190123003511 60 192 0.0 0.0 0.00 0.00 0.00 24 1020.1
20190123003011 60 192 0.0 0.0 0.00 0.00 0.00 23 1020.0
20190123002511 61 186 2.0 0.0 0.00 0.00 0.00 23 1019.9
20190123002011 61 186 1.0 0.0 0.00 0.00 0.00 23 1019.8
20190123001511 61 184 2.0 0.0 0.00 0.00 0.00 23 1019.6
20190123001011 62 199 0.0 0.0 0.00 0.00 0.00 23 1019.5
20190123000511 62 197 0.0 0.0 0.00 0.00 0.00 23 1019.5
20190123000011 62 199 0.0 0.0 0.00 0.00 0.00 22 1019.4
20190122235511 62 177 0.0 0.0 0.00 0.00 0.00 22 1019.3
20190122235011 62 177 0.0 0.0 0.00 0.00 0.00 22 1019.3
20190122234511 63 179 0.0 0.0 0.00 0.00 0.00 21 1019.2
20190122234011 63 185 0.0 0.0 0.00 0.00 0.00 21 1019.2
20190122233511 63 202 3.0 0.0 0.00 0.00 0.00 22 1019.1
20190122233011 63 209 1.0 0.0 0.00 0.00 0.00 21 1019.0
20190122232511 63 174 1.0 0.0 0.00 0.00 0.00 22 1018.9
20190122232011 63 194 1.0 0.0 0.00 0.00 0.00 22 1018.9
20190122231511 63 238 1.0 0.0 0.00 0.00 0.00 22 1018.9
20190122231010 63 194 4.0 0.0 0.00 0.00 0.00 22 1018.9
20190122230510 63 225 0.0 0.0 0.00 0.00 0.00 22 1018.8
20190122230010 63 224 4.0 0.0 0.00 0.00 0.00 22 1018.8
20190122225510 63 190 3.0 0.0 0.00 0.00 0.00 22 1018.8
20190122225010 63 241 0.0 0.0 0.00 0.00 0.00 22 1018.8
20190122224511 63 208 3.0 0.0 0.00 0.00 0.00 22 1018.8
20190122224010 63 275 2.0 0.0 0.00 0.00 0.00 22 1018.7
20190122223511 63 181 1.0 0.0 0.00 0.00 0.00 22 1018.7
20190122223010 64 302 0.0 0.0 0.00 0.00 0.00 22 1018.8
20190122222510 64 198 4.0 0.0 0.00 0.00 0.00 23 1018.7
20190122222010 64 237 2.0 0.0 0.00 0.00 0.00 23 1018.7
20190122221510 64 213 0.0 0.0 0.00 0.00 0.00 23 1018.7
20190122221010 63 292 0.0 0.0 0.00 0.00 0.00 22 1018.7
20190122220510 63 190 5.0 0.0 0.00 0.00 0.00 23 1018.7
20190122220010 63 203 1.0 0.0 0.00 0.00 0.00 23 1018.7
20190122215510 63 176 4.0 0.0 0.00 0.00 0.00 24 1018.6
20190122215010 63 175 5.0 0.0 0.00 0.00 0.00 23 1018.7
20190122214510 63 178 4.0 0.0 0.00 0.00 0.00 24 1018.7
20190122214010 63 212 1.0 0.0 0.00 0.00 0.00 24 1018.7
20190122213510 62 232 0.0 0.0 0.00 0.00 0.00 24 1018.7
20190122213010 62 265 2.0 0.0 0.00 0.00 0.00 23 1018.7
20190122212510 62 227 2.0 0.0 0.00 0.00 0.00 25 1018.7
20190122212010 63 293 5.0 0.0 0.00 0.00 0.00 24 1018.6
20190122211510 63 206 1.0 0.0 0.00 0.00 0.00 24 1018.7
20190122211010 62 182 1.0 0.0 0.00 0.00 0.00 25 1018.6
20190122210510 62 220 0.0 0.0 0.00 0.00 0.00 25 1018.6
20190122210010 62 189 2.0 0.0 0.00 0.00 0.00 26 1018.6
20190122205510 62 254 1.0 0.0 0.00 0.00 0.00 25 1018.6
20190122205011 62 238 1.0 0.0 0.00 0.00 0.00 26 1018.5
20190122204510 61 284 1.0 0.0 0.00 0.00 0.00 25 1018.6
20190122204010 61 205 3.0 0.0 0.00 0.00 0.00 26 1018.6
20190122203510 61 289 4.0 0.0 0.00 0.00 0.00 26 1018.6
20190122203010 61 313 2.0 0.0 0.00 0.00 0.00 26 1018.7
20190122202510 61 259 2.0 0.0 0.00 0.00 0.00 28 1018.8
20190122202011 61 299 2.0 0.0 0.00 0.00 0.00 27 1018.9
20190122201510 61 301 3.0 0.0 0.00 0.00 0.00 26 1018.9
20190122201010 62 232 0.0 0.0 0.00 0.00 0.00 27 1019.0
20190122200510 61 223 0.0 0.0 0.00 0.00 0.00 29 1019.1
20190122200010 61 210 1.0 0.0 0.00 0.00 0.00 28 1019.2
20190122195510 61 186 2.0 0.0 0.00 0.00 0.00 28 1019.1
20190122195010 61 227 1.0 0.0 0.00 0.00 0.00 29 1019.2
20190122194511 60 227 2.0 0.0 0.00 0.00 0.00 30 1019.2
20190122194010 60 200 0.0 0.0 0.00 0.00 0.00 30 1019.2
20190122193510 60 267 0.0 0.0 0.00 0.00 0.00 30 1019.4
20190122193010 60 236 0.0 0.0 0.00 0.00 0.00 31 1019.4
20190122192510 60 181 0.0 0.0 0.00 0.00 0.00 33 1019.5
20190122192010 60 181 1.0 0.0 0.00 0.00 0.00 33 1019.5
20190122191510 60 182 0.0 0.0 0.00 0.00 0.00 34 1019.5
20190122191010 59 184 2.0 0.0 0.00 0.00 0.00 34 1019.6
20190122190510 59 211 0.0 0.0 0.00 0.00 0.00 35 1019.5
20190122190010 59 211 0.0 0.0 0.00 0.00 0.00 35 1019.6
20190122185511 59 211 0.0 0.0 0.00 0.00 0.00 35 1019.6
20190122185010 59 168 0.0 0.0 0.00 0.00 0.00 36 1019.6
20190122184510 58 171 0.0 0.0 0.00 0.00 0.00 36 1019.5
20190122184011 58 171 2.0 0.0 0.00 0.00 0.00 37 1019.5
20190122183510 58 165 0.0 0.0 0.00 0.00 0.00 36 1019.5
20190122183010 58 165 0.0 0.0 0.00 0.00 0.00 37 1019.4
20190122182510 58 165 0.0 0.0 0.00 0.00 0.00 38 1019.3
20190122182011 57 163 0.0 0.0 0.00 0.00 0.00 38 1019.3
20190122181510 57 163 0.0 0.0 0.00 0.00 0.00 40 1019.3
20190122181010 56 163 0.0 0.0 0.00 0.00 0.00 42 1019.2
20190122180510 56 163 0.0 0.0 0.00 0.00 0.00 42 1019.2
20190122180010 55 163 0.0 0.0 0.00 0.00 0.00 42 1019.1
20190122175510 55 163 0.0 0.0 0.00 0.00 0.00 43 1019.1
20190122175011 54 163 0.0 0.0 0.00 0.00 0.00 44 1019.1
20190122174510 54 163 0.0 0.0 0.00 0.00 0.00 45 1019.1
20190122174010 54 163 0.0 0.0 0.00 0.00 0.00 45 1019.0
20190122173511 54 163 2.0 0.0 0.00 0.00 0.00 45 1018.9
20190122173010 54 161 2.0 0.0 0.00 0.00 0.00 46 1018.9
20190122172510 54 161 0.0 0.0 0.00 0.00 0.00 45 1018.8
20190122172010 54 111 1.0 0.0 0.00 0.00 0.00 45 1018.7
20190122171511 53 107 1.0 0.0 0.00 0.00 0.00 45 1018.7
20190122171011 53 107 1.0 0.0 0.00 0.00 0.00 45 1018.6
20190122170510 53 86 0.0 0.0 0.00 0.00 0.00 45 1018.5
20190122170011 52 111 1.0 0.0 0.00 0.00 0.00 46 1018.3
20190122165511 52 98 1.0 0.0 0.00 0.00 0.00 46 1018.3
20190122165010 52 82 1.0 0.0 0.00 0.00 0.00 47 1018.3
20190122164510 51 81 1.0 0.0 0.00 0.00 0.00 47 1018.3
20190122164010 51 74 2.0 0.0 0.00 0.00 0.00 47 1018.1
20190122163510 50 73 1.0 0.0 0.00 0.00 0.00 48 1018.0
20190122163011 50 73 3.0 0.0 0.00 0.00 0.00 49 1018.0
20190122162510 49 326 1.0 0.0 0.00 0.00 0.00 51 1018.0
20190122162010 49 325 0.0 0.0 0.00 0.00 0.00 52 1017.9
20190122161511 48 325 0.0 0.0 0.00 0.00 0.00 53 1017.8
20190122161010 48 325 2.0 0.0 0.00 0.00 0.00 55 1017.7
20190122160511 46 325 0.0 0.0 0.00 0.00 0.00 58 1017.7
20190122160010 46 325 0.0 0.0 0.00 0.00 0.00 60 1017.7
20190122155510 45 325 0.0 0.0 0.00 0.00 0.00 64 1017.6
20190122155010 43 323 0.0 0.0 0.00 0.00 0.00 69 1017.5
20190122154510 42 323 0.0 0.0 0.00 0.00 0.00 73 1017.5
20190122154010 42 323 0.0 0.0 0.00 0.00 0.00 76 1017.5
20190122153510 40 323 0.0 0.0 0.00 0.00 0.00 81 1017.6
20190122153011 39 323 0.0 0.0 0.00 0.00 0.00 80 1017.6
20190122152510 39 323 0.0 0.0 0.00 0.00 0.00 80 1017.5
20190122152010 39 340 0.0 0.0 0.00 0.00 0.00 80 1017.4
20190122151510 38 340 0.0 0.0 0.00 0.00 0.00 79 1017.3
20190122151011 38 340 0.0 0.0 0.00 0.00 0.00 79 1017.1
20190122150510 0 0.0 0.0 0.00 0.00 0.00 1016.9
20190122150010 0 0.0 0.0 0.00 0.00 0.00 1016.9
20190122145510 0 0.0 0.0 0.00 0.00 0.00 1016.8
20190122145010 0 0.0 0.0 0.00 0.00 0.00 1016.7
20190122144510 0 0.0 0.0 0.00 0.00 0.00 1016.4
20190122144010 0 0.0 0.0 0.00 0.00 0.00 1016.3
20190122143510 0 0.0 0.0 0.00 0.00 0.00 1016.2
20190122143010 0 0.0 0.0 0.00 0.00 0.00 1016.2
20190122142511 0 0.0 0.0 0.00 0.00 0.00 1015.9
20190122142010 0 0.0 0.0 0.00 0.00 0.00 1015.7
20190122141511 0 0.0 0.0 0.00 0.00 0.00 1015.6
20190122141010 0 0.0 0.0 0.00 0.00 0.00 1015.5
20190122140510 0 0.0 0.0 0.00 0.00 0.00 1015.5
20190122140010 0 0.0 0.0 0.00 0.00 0.00 1015.5
20190122135511 0 0.0 0.0 0.00 0.00 0.00 1015.4
20190122135010 0 0.0 0.0 0.00 0.00 0.00 1015.2
20190122134510 0 0.0 0.0 0.00 0.00 0.00 1015.1
20190122134010 0 0.0 0.0 0.00 0.00 0.00 1015.1
20190122133511 0 0.0 0.0 0.00 0.00 0.00 1015.1
20190122133011 0 0.0 0.0 0.00 0.00 0.00 1014.9
20190122132510 0 0.0 0.0 0.00 0.00 0.00 1014.6
20190122132011 0 0.0 0.0 0.00 0.00 0.00 1014.6
20190122131510 0 0.0 0.0 0.00 0.00 0.00 1014.6
20190122131010 0 0.0 0.0 0.00 0.00 0.00 1014.5
20190122130510 0 0.0 0.0 0.00 0.00 0.00 1014.3
20190122130011 0 0.0 0.0 0.00 0.00 0.00 1014.3
20190122125510 0 0.0 0.0 0.00 0.00 0.00 1014.2
20190122125010 0 0.0 0.0 0.00 0.00 0.00 1014.2
20190122124510 0 0.0 0.0 0.00 0.00 0.00 1014.1
20190122124011 0 0.0 0.0 0.00 0.00 0.00 1014.2
20190122123510 0 0.0 0.0 0.00 0.00 0.00 1014.2
20190122123010 41 257 0.0 0.0 0.00 0.00 0.00 69 1014.2
20190122122510 41 257 0.0 0.0 0.00 0.00 0.00 69 1014.2
20190122122010 41 256 0.0 0.0 0.00 0.00 0.00 69 1014.2
20190122121511 41 256 0.0 0.0 0.00 0.00 0.00 68 1014.1
20190122121010 41 256 0.0 0.0 0.00 0.00 0.00 68 1014.1
20190122120510 41 256 0.0 0.0 0.00 0.00 0.00 68 1014.0
20190122120010 42 256 0.0 0.0 0.00 0.00 0.00 68 1013.9
20190122115511 42 256 0.0 0.0 0.00 0.00 0.00 68 1013.9
20190122115011 42 256 0.0 0.0 0.00 0.00 0.00 67 1013.8
20190122114511 42 259 0.0 0.0 0.00 0.00 0.00 67 1013.8
20190122114011 43 259 0.0 0.0 0.00 0.00 0.00 67 1013.7
20190122113511 43 259 0.0 0.0 0.00 0.00 0.00 66 1013.6
20190122113010 43 259 0.0 0.0 0.00 0.00 0.00 65 1013.5
20190122112510 43 259 0.0 0.0 0.00 0.00 0.00 65 1013.5
20190122112010 43 259 0.0 0.0 0.00 0.00 0.00 64 1013.5
20190122111510 44 259 0.0 0.0 0.00 0.00 0.00 63 1013.5
20190122111011 44 259 0.0 0.0 0.00 0.00 0.00 63 1013.5
20190122110510 44 259 0.0 0.0 0.00 0.00 0.00 63 1013.5
20190122110011 44 259 0.0 0.0 0.00 0.00 0.00 62 1013.5
20190122105511 44 259 0.0 0.0 0.00 0.00 0.00 62 1013.4
20190122105011 44 259 0.0 0.0 0.00 0.00 0.00 62 1013.4
20190122104510 44 259 1.0 0.0 0.00 0.00 0.00 62 1013.4
20190122104012 44 259 0.0 0.0 0.00 0.00 0.00 62 1013.3
20190122103510 44 259 0.0 0.0 0.00 0.00 0.00 62 1013.3
20190122103010 44 259 0.0 0.0 0.00 0.00 0.00 62 1013.3
20190122102510 44 259 0.0 0.0 0.00 0.00 0.00 63 1013.3
20190122102010 44 259 0.0 0.0 0.00 0.00 0.00 64 1013.2
20190122101510 44 259 0.0 0.0 0.00 0.00 0.00 63 1013.2
20190122101010 44 259 0.0 0.0 0.00 0.00 0.00 63 1013.2
20190122100510 44 259 0.0 0.0 0.00 0.00 0.00 63 1013.2
20190122100010 44 259 0.0 0.0 0.00 0.00 0.00 63 1013.1
20190122095511 43 259 0.0 0.0 0.00 0.00 0.00 63 1013.1
20190122095010 43 259 2.0 0.0 0.00 0.00 0.00 63 1013.0
20190122094511 42 259 3.0 0.0 0.00 0.00 0.00 64 1013.0
20190122094010 42 259 1.0 0.0 0.00 0.00 0.00 65 1013.0
20190122093511 42 257 1.0 0.0 0.00 0.00 0.00 66 1013.0
20190122093011 42 257 2.0 0.0 0.00 0.00 0.00 67 1013.0
20190122092510 42 257 0.0 0.0 0.00 0.00 0.00 67 1012.9
20190122092011 41 257 0.0 0.0 0.00 0.00 0.00 67 1012.8
20190122091510 41 257 0.0 0.0 0.00 0.00 0.00 67 1012.8
20190122091010 41 257 0.0 0.0 0.00 0.00 0.00 68 1012.7
20190122090511 41 257 0.0 0.0 0.00 0.00 0.00 68 1012.6
20190122090012 41 257 0.0 0.0 0.00 0.00 0.00 67 1012.6
20190122085510 41 257 0.0 0.0 0.00 0.00 0.00 66 1012.6
20190122085010 42 257 0.0 0.0 0.00 0.00 0.00 65 1012.6
20190122084511 42 257 0.0 0.0 0.00 0.00 0.00 65 1012.6
20190122084010 42 257 0.0 0.0 0.00 0.00 0.00 64 1012.5
20190122083510 42 257 0.0 0.0 0.00 0.00 0.00 64 1012.4
20190122083011 42 257 0.0 0.0 0.00 0.00 0.00 64 1012.4
20190122082511 42 257 0.0 0.0 0.00 0.00 0.00 63 1012.3
20190122082011 42 257 0.0 0.0 0.00 0.00 0.00 62 1012.3
20190122081511 42 257 0.0 0.0 0.00 0.00 0.00 61 1012.3
20190122081011 42 257 0.0 0.0 0.00 0.00 0.00 61 1012.3
20190122080511 43 257 0.0 0.0 0.00 0.00 0.00 61 1012.4
20190122080010 43 257 0.0 0.0 0.00 0.00 0.00 60 1012.4
20190122075510 43 257 0.0 0.0 0.00 0.00 0.00 60 1012.3
20190122075010 43 257 0.0 0.0 0.00 0.00 0.00 60 1012.2
20190122074511 43 257 0.0 0.0 0.00 0.00 0.00 60 1012.2
20190122074011 43 257 1.0 0.0 0.00 0.00 0.00 60 1012.2
20190122073511 43 257 0.0 0.0 0.00 0.00 0.00 59 1012.2
20190122073011 44 257 0.0 0.0 0.00 0.00 0.00 59 1012.1
20190122072511 44 257 0.0 0.0 0.00 0.00 0.00 58 1012.1
20190122072010 44 257 0.0 0.0 0.00 0.00 0.00 58 1012.1
20190122071510 44 257 0.0 0.0 0.00 0.00 0.00 57 1012.2
20190122071011 44 257 0.0 0.0 0.00 0.00 0.00 56 1012.1
20190122070510 44 257 0.0 0.0 0.00 0.00 0.00 55 1012.0
20190122070011 45 257 0.0 0.0 0.00 0.00 0.00 55 1012.0
20190122065511 45 257 0.0 0.0 0.00 0.00 0.00 54 1012.0
20190122065011 45 257 0.0 0.0 0.00 0.00 0.00 54 1012.0
20190122064511 45 257 0.0 0.0 0.00 0.00 0.00 54 1012.0
20190122064011 45 257 0.0 0.0 0.00 0.00 0.00 53 1011.9
20190122063511 45 257 0.0 0.0 0.00 0.00 0.00 54 1011.8
20190122063011 45 257 0.0 0.0 0.00 0.00 0.00 53 1011.8
20190122062510 45 257 0.0 0.0 0.00 0.00 0.00 54 1011.8
20190122062011 45 257 0.0 0.0 0.00 0.00 0.00 53 1011.7
20190122061510 45 257 0.0 0.0 0.00 0.00 0.00 52 1011.8
20190122061011 45 257 0.0 0.0 0.00 0.00 0.00 52 1011.9
20190122060511 45 257 0.0 0.0 0.00 0.00 0.00 53 1011.8
20190122060011 45 257 0.0 0.0 0.00 0.00 0.00 53 1011.8
20190122055511 44 257 0.0 0.0 0.00 0.00 0.00 54 1011.7
20190122055011 44 257 0.0 0.0 0.00 0.00 0.00 53 1011.6
20190122054511 44 257 0.0 0.0 0.00 0.00 0.00 53 1011.7
20190122054011 44 257 0.0 0.0 0.00 0.00 0.00 54 1011.7
20190122053511 44 257 0.0 0.0 0.00 0.00 0.00 54 1011.6
20190122053010 44 257 0.0 0.0 0.00 0.00 0.00 54 1011.6
20190122052511 44 257 0.0 0.0 0.00 0.00 0.00 55 1011.5
20190122052011 45 257 0.0 0.0 0.00 0.00 0.00 55 1011.5
20190122051511 45 257 0.0 0.0 0.00 0.00 0.00 54 1011.5
20190122051011 45 257 0.0 0.0 0.00 0.00 0.00 55 1011.4
20190122050511 45 257 0.0 0.0 0.00 0.00 0.00 54 1011.4
20190122050010 45 257 0.0 0.0 0.00 0.00 0.00 53 1011.4
20190122045511 45 257 0.0 0.0 0.00 0.00 0.00 53 1011.4
20190122045011 46 257 0.0 0.0 0.00 0.00 0.00 52 1011.4
20190122044511 46 257 0.0 0.0 0.00 0.00 0.00 50 1011.3
20190122044011 46 257 0.0 0.0 0.00 0.00 0.00 49 1011.3
20190122043511 46 257 0.0 0.0 0.00 0.00 0.00 49 1011.2
20190122043011 46 257 0.0 0.0 0.00 0.00 0.00 48 1011.2
20190122042511 47 257 0.0 0.0 0.00 0.00 0.00 48 1011.1
20190122042011 47 257 0.0 0.0 0.00 0.00 0.00 47 1011.2
20190122041512 47 257 0.0 0.0 0.00 0.00 0.00 47 1011.1
20190122041011 47 257 0.0 0.0 0.00 0.00 0.00 47 1011.1
20190122040511 47 257 0.0 0.0 0.00 0.00 0.00 47 1011.0
20190122040012 48 257 0.0 0.0 0.00 0.00 0.00 47 1011.1
20190122035511 48 257 0.0 0.0 0.00 0.00 0.00 46 1011.0
20190122035011 48 257 0.0 0.0 0.00 0.00 0.00 44 1010.9
20190122034511 49 257 0.0 0.0 0.00 0.00 0.00 43 1010.9
20190122034011 49 257 0.0 0.0 0.00 0.00 0.00 42 1010.9
20190122033511 49 257 0.0 0.0 0.00 0.00 0.00 41 1010.8
20190122033011 50 257 0.0 0.0 0.00 0.00 0.00 40 1010.9
20190122032511 50 257 0.0 0.0 0.00 0.00 0.00 39 1010.7
20190122032011 51 257 0.0 0.0 0.00 0.00 0.00 38 1010.6
20190122031511 51 257 0.0 0.0 0.00 0.00 0.00 38 1010.5
20190122031011 51 257 0.0 0.0 0.00 0.00 0.00 38 1010.6
20190122030511 52 257 0.0 0.0 0.00 0.00 0.00 37 1010.6
20190122030011 52 257 0.0 0.0 0.00 0.00 0.00 37 1010.6
20190122025512 53 257 0.0 0.0 0.00 0.00 0.00 36 1010.6
20190122025011 53 257 0.0 0.0 0.00 0.00 0.00 34 1010.6
20190122024511 53 257 0.0 0.0 0.00 0.00 0.00 33 1010.6
20190122024011 54 257 0.0 0.0 0.00 0.00 0.00 31 1010.5
20190122023511 54 257 0.0 0.0 0.00 0.00 0.00 30 1010.4
20190122023011 54 257 0.0 0.0 0.00 0.00 0.00 29 1010.4
20190122022511 54 257 0.0 0.0 0.00 0.00 0.00 29 1010.3
20190122022011 54 257 0.0 0.0 0.00 0.00 0.00 29 1010.3
20190122021511 55 257 0.0 0.0 0.00 0.00 0.00 29 1010.4
20190122021011 55 257 1.0 0.0 0.00 0.00 0.00 28 1010.4
20190122020511 55 224 2.0 0.0 0.00 0.00 0.00 28 1010.4
20190122020011 55 224 3.0 0.0 0.00 0.00 0.00 28 1010.3
20190122015511 55 224 0.0 0.0 0.00 0.00 0.00 27 1010.2
20190122015011 56 224 0.0 0.0 0.00 0.00 0.00 27 1010.1
20190122014511 56 223 1.0 0.0 0.00 0.00 0.00 26 1010.0
20190122014011 56 242 0.0 0.0 0.00 0.00 0.00 26 1009.9
20190122013511 56 242 2.0 0.0 0.00 0.00 0.00 26 1009.9
20190122013011 56 240 4.0 0.0 0.00 0.00 0.00 26 1009.8
20190122012512 56 242 2.0 0.0 0.00 0.00 0.00 25 1010.0